EUTELSAT 33E

Last updated on Fri Nov 22 2024 00:02:40 GMT+0000 (Coordinated Universal Time)

1 33750U 09008B 24325.84747815 -.00000131 00000+0 00000+0 0 9999 2 33750 1.1975 87.3516 0003360 189.9390 198.0952 0.98942287 57694

Satellite not in orbit

EUTELSAT 33E